Weather observations for the past three days for
Garrett County Airport
Imperial (Metric)
Date Time (edt) Wind (mph) Vis. (mi.) Weather Sky Cond. Temperature (ºF) Relative Humidity Wind Chill (°F) Heat Index (°F) Pressure Precipitation (in)
Air Dwpt 6 hour altimeter (in) sea level (mb) 1 hr 3 hr 6 hr
Max. Min.
22 06:25 W 6 10.00 Fair CLR 71.6 62.6 73% 30.24 0.0
22 06:05 W 6 10.00 Fair CLR 71.6 62.6 73% 30.24 0.0
22 05:45 SW 6 10.00 Fair CLR 71.6 62.6 73% 30.23 0.0
22 05:25 SW 6 10.00 Fair CLR 71.6 62.6 73% 30.23 0.0
22 05:05 SW 7 10.00 Fair CLR 71.6 62.6 73% 30.23 0.0
22 04:45 SW 6 10.00 Fair CLR 69.8 62.6 78% 30.23 0.0
22 04:25 SW 6 10.00 Fair CLR 69.8 62.6 78% 30.23 0.0
22 04:05 SW 5 10.00 Fair CLR 71.6 62.6 73% 30.23 0.0
22 03:45 SW 5 10.00 Fair CLR 71.6 62.6 73% 30.23 0.0
22 03:25 SW 5 10.00 Fair CLR 71.6 64.4 78% 30.23 0.0
22 03:05 SW 6 10.00 Fair CLR 71.6 64.4 78% 30.23 0.0
22 02:45 SW 6 10.00 Fair CLR 71.6 62.6 73% 30.24 0.0
22 02:25 SW 5 10.00 Fair CLR 71.6 62.6 73% 30.24 0.0
22 02:05 Vrbl 3 10.00 Fair CLR 73.4 62.6 69% 30.25 0.0
22 01:45 Calm 10.00 Fair CLR 73.4 62.6 69% 30.25 0.0
22 01:25 Calm 10.00 Fair CLR 73.4 62.6 69% 30.25 0.0
22 01:05 Calm 10.00 Fair CLR 73.4 62.6 69% 30.25 0.0
22 00:45 W 3 10.00 Fair CLR 73.4 62.6 69% 30.26 0.0
22 00:25 Calm 10.00 Fair CLR 73.4 62.6 69% 30.26 0.0
22 00:05 W 5 10.00 Fair CLR 75.2 62.6 65% 77 30.26 0.0
21 23:45 W 5 10.00 Fair CLR 75.2 62.6 65% 77 30.27 0.0
21 23:25 W 5 10.00 Fair CLR 75.2 62.6 65% 77 30.27 0.0
21 23:05 W 5 10.00 Fair CLR 73.4 62.6 69% 30.26 0.0
21 22:45 Vrbl 5 10.00 Fair CLR 75.2 64.4 69% 77 30.26 0.0
21 22:25 Calm 10.00 Fair CLR 75.2 64.4 69% 77 30.27 0.0
21 22:05 W 3 10.00 Fair CLR 75.2 64.4 69% 77 30.26 0.0
21 21:45 Vrbl 3 10.00 Fair CLR 75.2 62.6 65% 77 30.26 0.0
21 21:25 Calm 10.00 Fair CLR 75.2 64.4 69% 77 30.26 0.0
21 21:05 W 5 10.00 Fair CLR 75.2 62.6 65% 77 30.26 0.0
21 20:45 W 5 10.00 Fair CLR 77 62.6 61% 79 30.26 0.0
21 20:25 W 5 10.00 Fair CLR 77 62.6 61% 79 30.26 0.0
21 20:05 Calm 10.00 Fair CLR 78.8 64.4 61% 81 30.26 0.0
21 19:45 Calm 10.00 Fair CLR 78.8 64.4 61% 81 30.26 0.0
21 19:25 Calm 10.00 Fair CLR 80.6 64.4 58% 82 30.26 0.0
21 19:05 Vrbl 3 10.00 Fair CLR 82.4 64.4 55% 84 30.25 0.0
21 18:45 Vrbl 6 10.00 Fair CLR 82.4 64.4 55% 84 30.25 0.0
21 18:25 Vrbl 5 10.00 Fair CLR 82.4 64.4 55% 84 30.25 0.0
21 18:05 Vrbl 5 G 12 10.00 Fair CLR 82.4 64.4 55% 84 30.25 0.0
21 17:45 Vrbl 5 10.00 Fair CLR 82.4 64.4 55% 84 30.26 0.0
21 17:25 Vrbl 6 10.00 Fair CLR 82.4 66.2 58% 85 30.27 0.0
21 17:05 Vrbl 7 10.00 Fair CLR 84.2 66.2 55% 87 30.27 0.0
21 16:45 W 8 10.00 Fair CLR 82.4 64.4 55% 84 30.28 0.0
21 16:25 Vrbl 5 10.00 Fair CLR 84.2 66.2 55% 87 30.28 0.0
21 16:05 Vrbl 6 G 13 10.00 A Few Clouds FEW043 0 0 0% 30.28 0.0
21 15:45 W 8 G 14 10.00 A Few Clouds FEW042 82.4 66.2 58% 85 30.29 0.0
21 15:25 Vrbl 5 G 14 10.00 Partly Cloudy SCT040 SCT047 84.2 66.2 55% 87 30.3 0.0
21 15:05 Vrbl 5 G 14 10.00 A Few Clouds FEW039 0 0 0% 30.3 0.0
21 14:45 W 7 10.00 Fair CLR 82.4 66.2 58% 85 30.3 0.0
21 14:25 Vrbl 6 10.00 Fair CLR 84.2 66.2 55% 87 30.31 0.0
21 14:05 W 8 10.00 A Few Clouds FEW045 0 0 0% 30.32 0.0
21 13:45 Vrbl 5 10.00 Partly Cloudy FEW036 SCT047 0 0 0% 30.32 0.0
21 13:25 Vrbl 5 10.00 Partly Cloudy SCT037 SCT044 SCT050 0 0 0% 30.33 0.0
21 13:05 SW 6 10.00 A Few Clouds FEW038 FEW050 82.4 66.2 58% 85 30.34 0.0
21 12:45 Vrbl 7 10.00 Fair CLR 82.4 68 62% 85 30.34 0.0
21 12:25 Vrbl 6 10.00 Partly Cloudy FEW033 SCT043 80.6 68 66% 83 30.34 0.0
21 12:05 Vrbl 3 10.00 Partly Cloudy SCT029 SCT037 SCT042 80.6 66.2 62% 83 30.35 0.0
21 11:45 W 5 10.00 Mostly Cloudy BKN029 BKN037 78.8 68 70% 81 30.35 0.0
21 11:25 Calm 10.00 Fair CLR 78.8 66.2 65% 81 30.35 0.0
21 11:05 Calm 10.00 Fair CLR 78.8 66.2 65% 81 30.35 0.0
21 10:45 Vrbl 5 10.00 Fair CLR 78.8 66.2 65% 81 30.36 0.0
21 10:25 W 3 10.00 A Few Clouds FEW025 78.8 68 70% 81 30.36 0.0
21 10:05 Vrbl 5 10.00 Fair CLR 77 68 74% 79 30.36 0.0
21 09:45 Calm 10.00 Fair CLR 77 68 74% 79 30.36 0.0
21 09:25 N 3 10.00 Fair CLR 75.2 66.2 74% 77 30.36 0.0
21 09:05 Vrbl 3 10.00 Fair CLR 75.2 68 78% 76 30.36 0.0
21 08:45 N 5 10.00 Fair CLR 75.2 68 78% 76 30.36 0.0
21 08:25 Calm 10.00 Fair CLR 75.2 66.2 74% 77 30.36 0.0
21 08:05 Calm 10.00 Fair CLR 73.4 66.2 78% 30.36 0.0
21 07:45 Calm 10.00 Fair CLR 73.4 66.2 78% 30.36 0.0
21 07:25 Calm 10.00 Fair CLR 71.6 66.2 83% 30.36 0.0
21 07:05 Calm 10.00 Fair CLR 71.6 66.2 83% 30.35 0.0
21 06:45 Calm 10.00 Fair CLR 71.6 66.2 83% 30.35 0.0
21 06:25 Calm 10.00 Fair CLR 71.6 64.4 78% 30.35 0.0
21 06:05 Calm 10.00 Fair CLR 71.6 64.4 78% 30.36 0.0
21 05:45 Calm 10.00 NULL NULL 71.6 64.4 78% 30.35 0.0
21 05:25 Calm 10.00 Fair CLR 71.6 64.4 78% 30.35 0.0
21 05:05 Calm 10.00 Fair CLR 71.6 64.4 78% 30.35 0.0
21 04:45 Calm 10.00 Fair CLR 71.6 64.4 78% 30.35 0.0
21 04:25 Calm 10.00 Fair CLR 71.6 64.4 78% 30.35 0.0
21 04:05 Calm 10.00 Fair CLR 71.6 64.4 78% 30.35 0.0
21 03:45 Calm 10.00 Fair CLR 71.6 64.4 78% 30.35 0.0
21 03:25 W 3 10.00 Fair CLR 71.6 62.6 73% 30.36 0.0
21 03:05 Calm 10.00 Fair CLR 73.4 64.4 74% 30.36 0.0
21 02:45 Calm 10.00 Fair CLR 73.4 64.4 74% 30.36 0.0
21 02:25 Calm 10.00 Fair CLR 73.4 64.4 74% 30.36 0.0
21 02:05 Calm 10.00 Fair CLR 71.6 64.4 78% 30.37 0.0
21 01:45 S 3 10.00 Fair CLR 71.6 64.4 78% 30.37 0.0
21 01:25 Calm 10.00 Fair CLR 73.4 64.4 74% 30.37 0.0
21 01:05 Calm 10.00 Fair CLR 73.4 64.4 74% 30.37 0.0
21 00:45 Calm 10.00 Fair CLR 73.4 64.4 74% 30.38 0.0
21 00:25 Calm 10.00 Fair CLR 73.4 64.4 74% 30.38 0.0
21 00:05 Calm 10.00 Fair CLR 73.4 64.4 74% 30.38 0.0
20 23:45 Calm 10.00 Fair CLR 73.4 64.4 74% 30.38 0.0
20 23:25 SE 5 10.00 Fair CLR 73.4 64.4 74% 30.38 0.0
20 23:05 Calm 10.00 Partly Cloudy SCT033 73.4 64.4 74% 30.38 0.0
20 22:45 Calm 10.00 Mostly Cloudy BKN033 73.4 64.4 74% 30.39 0.0
20 22:25 SE 6 10.00 Mostly Cloudy BKN035 73.4 64.4 74% 30.39 0.0
20 22:05 SE 5 10.00 Partly Cloudy SCT038 SCT049 75.2 64.4 69% 77 30.38 0.0
20 21:45 SE 3 10.00 Mostly Cloudy SCT034 BKN041 BKN049 75.2 64.4 69% 77 30.38 0.0
20 21:25 SE 5 10.00 Mostly Cloudy BKN035 BKN041 BKN049 75.2 64.4 69% 77 30.37 0.0
20 21:05 SE 5 10.00 Partly Cloudy FEW034 FEW041 SCT049 75.2 64.4 69% 77 30.37 0.0
20 20:45 Calm 10.00 Partly Cloudy SCT041 75.2 64.4 69% 77 30.37 0.0
20 20:25 Calm 10.00 Partly Cloudy SCT039 SCT044 78.8 64.4 61% 81 30.36 0.0
20 20:05 E 3 10.00 Overcast BKN039 BKN045 OVC055 78.8 64.4 61% 81 30.37 0.0
20 19:45 SE 7 10.00 NULL NULL 78.8 64.4 61% 81 30.37 0.0
20 19:25 Calm 0.00 NULL NULL 78.8 64.4 61% 81 30.37 0.0
20 19:05 Calm 10.00 Partly Cloudy SCT044 SCT060 78.8 64.4 61% 81 30.36 0.0
20 18:45 Calm 10.00 Mostly Cloudy BKN044 BKN060 80.6 64.4 58% 82 30.37 0.0
20 18:25 Calm 10.00 Mostly Cloudy BKN043 BKN060 80.6 66.2 62% 83 30.37 0.0
20 18:05 Calm 10.00 Mostly Cloudy BKN044 BKN060 80.6 64.4 58% 82 30.37 0.0
20 17:45 Calm 10.00 Overcast OVC044 86 64.4 49% 87 30.37 0.0
20 17:25 Calm 10.00 Mostly Cloudy BKN044 84.2 64.4 51% 86 30.37 0.0
20 17:05 Calm 10.00 Fair CLR 84.2 64.4 51% 86 30.38 0.0
20 16:45 S 5 10.00 Fair CLR 84.2 64.4 51% 86 30.39 0.0
20 16:25 SE 6 10.00 A Few Clouds FEW049 84.2 64.4 51% 86 30.39 0.0
20 16:05 W 3 10.00 Partly Cloudy SCT045 SCT050 82.4 62.6 51% 83 30.4 0.0
20 15:45 Calm 10.00 Partly Cloudy SCT045 SCT050 80.6 62.6 54% 82 30.4 0.0
20 15:25 Calm 10.00 Partly Cloudy SCT046 82.4 62.6 51% 83 30.41 0.0
20 15:05 Calm 10.00 A Few Clouds FEW044 80.6 64.4 58% 82 30.41 0.0
20 14:45 Calm 10.00 Mostly Cloudy BKN041 BKN047 82.4 64.4 55% 84 30.42 0.0
20 14:25 NE 5 10.00 Mostly Cloudy BKN042 80.6 64.4 58% 82 30.42 0.0
20 14:05 Vrbl 5 10.00 Partly Cloudy FEW036 SCT043 80.6 66.2 62% 83 30.43 0.0
20 13:45 Calm 10.00 Mostly Cloudy BKN038 BKN046 78.8 64.4 61% 81 30.43 0.0
20 13:25 Vrbl 3 10.00 Mostly Cloudy BKN039 BKN050 80.6 66.2 62% 83 30.44 0.0
20 13:05 Calm 9.00 Partly Cloudy SCT040 SCT046 80.6 64.4 58% 82 30.44 0.0
20 12:45 Vrbl 5 10.00 Partly Cloudy SCT034 SCT040 78.8 64.4 61% 81 30.44 0.0
20 12:25 Calm 10.00 Mostly Cloudy BKN034 BKN040 77 64.4 65% 79 30.45 0.0
20 12:05 Vrbl 5 10.00 Fair CLR 78.8 64.4 61% 81 30.45 0.0
20 11:45 Calm 10.00 Fair CLR 77 62.6 61% 79 30.45 0.0
20 11:25 Vrbl 5 10.00 Fair CLR 77 64.4 65% 79 30.45 0.0
20 11:05 Vrbl 5 10.00 Fair CLR 75.2 62.6 65% 77 30.45 0.0
20 10:45 Vrbl 5 10.00 Fair CLR 75.2 62.6 65% 77 30.45 0.0
20 10:25 Vrbl 5 10.00 Fair CLR 73.4 62.6 69% 30.44 0.0
20 10:05 W 7 10.00 Fair CLR 71.6 62.6 73% 30.45 0.0
20 09:45 Calm 10.00 Fair CLR 71.6 62.6 73% 30.45 0.0
20 09:25 SW 6 10.00 A Few Clouds FEW018 71.6 62.6 73% 30.45 0.0
20 09:05 Vrbl 5 10.00 A Few Clouds FEW016 71.6 62.6 73% 30.45 0.0
20 08:45 SW 3 10.00 Fair CLR 69.8 62.6 78% 30.44 0.0
20 08:25 SW 3 10.00 Fair CLR 69.8 62.6 78% 30.44 0.0
20 08:05 Vrbl 5 10.00 Fair CLR 68 60.8 78% 30.44 0.0
20 07:45 W 5 10.00 A Few Clouds FEW016 68 60.8 78% 30.44 0.0
20 07:25 W 5 10.00 Mostly Cloudy BKN015 68 60.8 78% 30.44 0.0
20 07:05 W 6 10.00 A Few Clouds FEW014 66.2 60.8 83% 30.43 0.0
20 06:45 SW 5 10.00 Fair CLR 68 60.8 78% 30.43 0.0
20 06:25 Vrbl 6 10.00 Fair CLR 66.2 60.8 83% 30.43 0.0
20 06:05 SW 7 10.00 Fair CLR 66.2 60.8 83% 30.42 0.0
20 05:45 SW 6 10.00 Fair CLR 66.2 62.6 88% 30.42 0.0
20 05:25 SW 6 10.00 Fair CLR 66.2 60.8 83% 30.42 0.0
20 05:05 SW 6 10.00 Fair CLR 66.2 60.8 83% 30.41 0.0
20 04:45 SW 7 10.00 Fair CLR 66.2 60.8 83% 30.41 0.0
20 04:25 SW 7 10.00 Fair CLR 66.2 60.8 83% 30.42 0.0
20 04:05 SW 7 10.00 Fair CLR 66.2 60.8 83% 30.41 0.0
20 03:45 SW 7 10.00 Fair CLR 66.2 60.8 83% 30.41 0.0
20 03:25 SW 6 10.00 Fair CLR 66.2 60.8 83% 30.41 0.0
20 03:05 SW 7 10.00 Fair CLR 66.2 60.8 83% 30.41 0.0
20 02:45 S 7 10.00 Fair CLR 66.2 60.8 83% 30.41 0.0
20 02:25 S 7 10.00 Fair CLR 68 60.8 78% 30.42 0.0
20 02:05 S 6 10.00 Fair CLR 68 60.8 78% 30.42 0.0
20 01:45 S 7 10.00 Fair CLR 66.2 60.8 83% 30.42 0.0
20 01:25 SE 8 10.00 Fair CLR 68 60.8 78% 30.42 0.0
20 01:05 SE 8 10.00 Fair CLR 68 60.8 78% 30.42 0.0
20 00:45 SE 9 10.00 Fair CLR 68 60.8 78% 30.42 0.0
20 00:25 SE 8 10.00 Fair CLR 68 60.8 78% 30.42 0.0
20 00:05 SE 9 10.00 Fair CLR 68 60.8 78% 30.42 0.0
19 23:45 SE 8 10.00 Fair CLR 68 60.8 78% 30.43 0.0
19 23:25 SE 9 10.00 Fair CLR 68 60.8 78% 30.43 0.0
19 23:05 SE 9 10.00 Fair CLR 68 60.8 78% 30.43 0.0
19 22:45 SE 7 10.00 Fair CLR 69.8 62.6 78% 30.43 0.0
19 22:25 SE 7 10.00 Fair CLR 69.8 62.6 78% 30.43 0.0
19 22:05 SE 6 10.00 Fair CLR 69.8 62.6 78% 30.43 0.0
19 21:45 SE 7 10.00 Fair CLR 71.6 62.6 73% 30.41 0.0
19 21:25 SE 8 10.00 Fair CLR 71.6 62.6 73% 30.41 0.0
19 21:05 SE 9 10.00 Fair CLR 71.6 64.4 78% 30.4 0.0
19 20:45 Vrbl 7 G 13 10.00 Fair CLR 73.4 64.4 74% 30.4 0.0
19 20:25 SE 7 10.00 Fair CLR 75.2 66.2 74% 77 30.4 0.0
19 20:05 SE 7 10.00 Fair CLR 75.2 66.2 74% 77 30.4 0.0
19 19:40 SE 7 10.00 Fair CLR 77 66.2 69% 79 30.4 0.0
19 19:25 SE 7 10.00 Fair CLR 78.8 66.2 65% 81 30.4 0.0
19 19:05 SE 6 G 13 10.00 Fair CLR 77 64.4 65% 79 30.4 0.0
19 18:45 SE 8 10.00 Fair CLR 78.8 64.4 61% 81 30.4 0.0
19 18:25 SE 10 10.00 Fair CLR 78.8 64.4 61% 81 30.4 0.0
19 18:05 SE 8 G 14 10.00 Fair CLR 78.8 66.2 65% 81 30.4 0.0
19 17:45 SE 9 10.00 Fair CLR 78.8 64.4 61% 81 30.4 0.0
19 17:25 SE 9 G 16 10.00 Fair CLR 82.4 64.4 55% 84 30.4 0.0
19 17:05 SE 12 10.00 Fair CLR 82.4 64.4 55% 84 30.41 0.0
19 16:45 SE 9 G 15 10.00 Fair CLR 80.6 64.4 58% 82 30.41 0.0
19 16:25 E 8 10.00 Fair CLR 80.6 64.4 58% 82 30.41 0.0
19 16:05 E 8 10.00 Fair CLR 80.6 64.4 58% 82 30.42 0.0
19 15:45 SE 9 10.00 Fair CLR 80.6 62.6 54% 82 30.41 0.0
19 15:25 SE 9 10.00 Fair CLR 82.4 64.4 55% 84 30.42 0.0
19 15:05 SE 8 10.00 Fair CLR 80.6 62.6 54% 82 30.42 0.0
19 14:45 Vrbl 7 G 13 10.00 Fair CLR 82.4 64.4 55% 84 30.43 0.0
19 14:25 E 9 10.00 Fair CLR 80.6 62.6 54% 82 30.43 0.0
19 14:05 SE 8 10.00 Fair CLR 80.6 60.8 51% 81 30.43 0.0
19 13:45 Vrbl 3 G 12 10.00 Fair CLR 80.6 64.4 58% 82 30.44 0.0
19 13:25 Vrbl 5 G 14 10.00 A Few Clouds FEW031 80.6 64.4 58% 82 30.44 0.0
19 13:05 SE 8 10.00 Fair CLR 80.6 64.4 58% 82 30.44 0.0
19 12:45 Vrbl 5 G 12 10.00 Fair CLR 80.6 66.2 62% 83 30.44 0.0
19 12:25 SE 7 10.00 Fair CLR 78.8 64.4 61% 81 30.44 0.0
19 12:05 S 8 10.00 A Few Clouds FEW030 78.8 66.2 65% 81 30.45 0.0
19 11:45 SE 9 10.00 A Few Clouds FEW030 78.8 64.4 61% 81 30.45 0.0
19 11:25 Vrbl 7 G 13 10.00 Fair CLR 78.8 64.4 61% 81 30.45 0.0
19 11:05 SE 6 G 12 10.00 A Few Clouds FEW029 78.8 64.4 61% 81 30.45 0.0
19 10:45 Vrbl 5 10.00 Partly Cloudy SCT027 77 66.2 69% 79 30.45 0.0
19 10:25 S 8 10.00 Partly Cloudy SCT028 75.2 66.2 74% 77 30.45 0.0
19 10:05 Calm 10.00 Fair CLR 75.2 66.2 74% 77 30.45 0.0
19 09:45 Vrbl 6 10.00 Fair CLR 75.2 66.2 74% 77 30.44 0.0
19 09:25 S 5 10.00 Fair CLR 73.4 66.2 78% 30.45 0.0
19 09:05 Vrbl 3 10.00 Fair CLR 73.4 68 83% 30.45 0.0
19 08:45 S 3 10.00 Fair CLR 71.6 68 88% 30.44 0.0
19 08:25 S 5 10.00 Fair CLR 71.6 66.2 83% 30.43 0.0
19 08:05 Calm 10.00 Fair CLR 69.8 66.2 88% 30.43 0.0
19 07:45 S 5 10.00 Fair CLR 69.8 66.2 88% 30.42 0.0
19 07:25 SE 5 10.00 Fair CLR 69.8 66.2 88% 30.42 0.0
19 07:05 SE 5 10.00 Fair CLR 68 66.2 94% 30.41 0.0
19 06:45 SE 6 10.00 Fair CLR 68 66.2 94% 30.41 0.0
Date Time (edt) Wind (mph) Vis. (mi.) Weather Sky Cond. Air Dwpt Max. Min. Relative Humidity Wind Chill (°F) Heat Index (°F) altimeter (in) sea level (mb) 1 hr 3 hr 6 hr
6 hour
Temperature (ºF) Pressure Precipitation (in)